Regional Weather Roundup
Issued by NWS

Home | Current Version | Previous Version | Text Only | Print | Product List | Glossary Off
Versions: 1 2 3 4 5 6 7 8 9 10 11 12 13 14 15 16 17 18 19 20 21 22 23 24 25 26 27 28 29 30 31 32 33 34 35 36 37 38 39 40 41 42 43 44 45 46 47 48 49 50

000
ASUS43 KBIS 221202
RWRND

NORTH DAKOTA REGIONAL WEATHER ROUNDUP
NATIONAL WEATHER SERVICE BISMARCK ND
700 AM CDT TUE AUG 22 2017

NOTE: "FAIR" INDICATES FEW OR NO CLOUDS BELOW 12,000 FEET WITH NO
SIGNIFICANT WEATHER AND/OR OBSTRUCTIONS TO VISIBILITY.


NDZ001>003-009>011-017-221300-
NORTHWEST NORTH DAKOTA

CITY           SKY/WX    TMP DP  RH WIND       PRES   REMARKS
WILLISTON      CLEAR     44  37  76 S3        30.20R
6HR MIN TEMP:  40; 6HR MAX TEMP:  48;

MINOT          CLEAR     48  41  76 SW8       30.14R
MINOT AFB      CLEAR     45  39  79 W9        30.13R
$$

NDZ018>021-031>035-040>046-221300-
SOUTHWEST NORTH DAKOTA

CITY           SKY/WX    TMP DP  RH WIND       PRES   REMARKS
BISMARCK       CLEAR     47  44  90 SW3       30.18R
6HR MIN TEMP:  46; 6HR MAX TEMP:  54;

DICKINSON      PTCLDY    44  39  82 W3        30.20R
GARRISON         N/A     42  39  89 NW7       30.16R
6HR MIN TEMP:  41; 6HR MAX TEMP:  48;

HETTINGER ARPT MOCLDY    43  38  82 NW5       30.23R
$$

NDZ004>008-012>016-024-026-027-054-221300-
NORTHEAST NORTH DAKOTA

CITY           SKY/WX    TMP DP  RH WIND       PRES   REMARKS
GRAND FORKS    PTCLDY    49  46  90 W8        30.02R
GRND FRKS AFB  CLEAR     49  44  82 NW9       30.04R
DEVILS LAKE    CLEAR     51  45  79 W9        30.10R
$$

NDZ022-023-025-028>030-036>039-047>053-221300-
SOUTHEAST NORTH DAKOTA

CITY           SKY/WX    TMP DP  RH WIND       PRES   REMARKS
FARGO          CLEAR     50  47  89 W7        30.04R
6HR MIN TEMP:  49; 6HR MAX TEMP:  57;

JAMESTOWN      CLEAR     50  45  83 W10       30.11R
$$





USA.gov is the U.S. government's official web portal to all federal, state and local government web resources and services.